Погода в Красной Слободке

Россия / Оренбургская область     53°13′43″N   52°31′06″E
темп.,
°C
ветер,
м/с
пор.,
м/с
влажн.,
%
обл.,
%
осадки,
мм/ч
давл.,
гПа
погр.,
м
4 августа, ср
ср423:00+27зюз223399 0.0 101015
02:00+24вюв224099 0.0 101116
05:00+22зсз114519 0.0 101111
08:00+26юв12415 0.0 101272
11:00+33ююз472334 0.0 1011875
14:00+38юз6813100 0.0 10103879
17:00+38зюз681175 0.0 10084733
20:00+33сз362489 0.0 1007107
5 августа, чт
чт523:00+26ссз5124396 0.0 1009332
02:00+23сз5961100 0.0 1010231
05:00+20ссз4880100 0.0 1010238
08:00+19ссз4889100 0.9 1012274
11:00+23ссз226599 0.9 1012593
14:00+28ссз5445100 0.0 10111526
17:00+29ссз543544 0.0 10112530
20:00+26ссз6936100 0.0 10121031
6 августа, пт
пт623:00+22ссз5104437 0.0 1013371
02:00+18ссз335552 0.0 101432
05:00+16ссз33640 0.0 101531
08:00+18ссв46615 0.0 1016258
11:00+24с454217 0.0 10161448
14:00+27с342945 0.0 10152385
17:00+28с342521 0.0 10152580
20:00+26ссз363291 0.0 1015176
7 августа, сб
сб723:00+20с34405 0.0 101649
02:00+17св334456 0.0 101723
05:00+15в2255100 0.0 101822
08:00+19в345213 0.0 1018161
11:00+25в22335 0.0 10181188
14:00+28ссв32265 0.0 10171788
17:00+30ссв33256 0.0 10171931
20:00+28св223240 0.0 101723
8 августа, вс
вс823:00+22вюв343847 0.0 101847
02:00+20юв3844100 0.0 1018138
05:00+19ююв224397 0.0 101927
08:00+22ююв243998 0.0 1019139
11:00+28ююв3327100 0.0 1019800
14:00+32юв23227 0.0 10172179
17:00+33в1221100 0.0 10162891
20:00+30в3327100 0.0 101540